Tracking 22879 objects as of 21-Apr-2021
HD Live streaming from Space Station
objects crossing your sky now

COSMOS 1755

Track COSMOS 1755 now!
10-day predictions
COSMOS 1755 is classified as:


NORAD ID: 16765
Int'l Code: 1986-042H
Perigee: 1,430.2 km
Apogee: 1,477.1 km
Inclination: 74.0 °
Period: 114.8 minutes
Semi major axis: 7824 km
RCS: 0.6969 m2 (medium)
Launch date: June 6, 1986
Source: Commonwealth of Independent States (former USSR) (CIS)
Launch site: PLESETSK MISSILE AND SPACE COMPLEX (PKMTR)
aabbcc
Your satellite tracking list
Your tracking list is empty




NASA's NSSDC Master Catalog

Two Line Element Set (TLE):
1 16765U 86042H   21110.90227038 -.00000021  00000-0 -28653-4 0  9994
2 16765  74.0178 169.2089 0029975 265.0957 205.8563 12.54303509596826
Source of the keplerian elements: AFSPC